Regional Weather Roundup
Issued by NWS

Home | Current Version | Previous Version | Text Only | Print | Product List | Glossary On
Versions: 1 2 3 4 5 6 7 8 9 10 11 12 13 14 15 16 17 18 19 20 21 22 23 24 25 26 27 28 29 30 31 32 33 34 35 36 37 38 39 40 41 42 43 44 45 46 47 48 49 50
000
ASUS43 KLSX 020907
RWRMO

WEATHER SUMMARY FOR MISSOURI
NATIONAL WEATHER SERVICE SPRINGFIELD MO
400 AM CDT MON MAY 02 2016

NOTE: "FAIR" INDICATES FEW OR NO CLOUDS BELOW 12,000 FEET WITH NO
       SIGNIFICANT WEATHER AND/OR OBSTRUCTIONS TO VISIBILITY.
       CURRENT SKY AND/OR WEATHER CONDITIONS ARE NOT AVAILABLE FOR
       CHILLICOTHE AND FARMINGTON.

MOZ001>031-035>038-043-044-053-054-021000-
...NORTHERN AND WESTERN MISSOURI...

CITY           SKY/WX    TMP DP  RH WIND       PRES   REMARKS
KANSAS CTY INT CLOUDY    48  44  86 NW6       30.11F
KANSAS C DTWN  CLOUDY    50  44  80 NW5       30.11F
LEE`S SUMMIT   CLOUDY    49  44  83 NW8       30.11F
ST JOSEPH      CLOUDY    48  44  86 NW5       30.13S
CHILLICOTHE      N/A     50  46  86 NW3       30.12S
KIRKSVILLE     CLOUDY    48  46  93 NW5       30.10S

$$
MOZ066>068-077>081-088>096-101>105-021000-
...SOUTHWEST MISSOURI...

CITY           SKY/WX    TMP DP  RH WIND       PRES   REMARKS
SPRINGFIELD    MOCLDY    51  46  83 N8        30.05F
JOPLIN         CLOUDY    50  47  89 N6        30.10S

$$
MOZ032>034-039>042-045>050-055>058-069>072-021000-
...CENTRAL MISSOURI...

CITY           SKY/WX    TMP DP  RH WIND       PRES   REMARKS
COLUMBIA       CLOUDY    50  44  80 N7        30.07F
JEFFERSON CITY MOCLDY    51  44  77 NW5       30.08S
ROLLA          LGT RAIN  48  44  86 N9        30.04F
SEDALIA        CLOUDY    50  45  83 NW6       30.09F
WARRENSBURG    CLOUDY    48  45  87 NW3       30.10S
OSAGE BEACH    CLOUDY    48  37  66 N6        30.06F

$$
MOZ051-052-059>065-021000-
...EAST CENTRAL MISSOURI...

CITY           SKY/WX    TMP DP  RH WIND       PRES   REMARKS
ST LOUIS INTL  CLOUDY    54  46  74 NW10G18   30.06R
SPIRIT OF STL  CLOUDY    52  48  86 NW7       30.05S
ST CHARLES     CLOUDY    53  47  79 NW13      30.05S

$$
MOZ072>076-082>087-097>100-106>115-021000-
...SOUTH CENTRAL AND SOUTHEAST MISSOURI...

CITY           SKY/WX    TMP DP  RH WIND       PRES   REMARKS
CAPE GIRARDEAU CLEAR     56  48  74 N7        30.03R
FARMINGTON     CLOUDY    51  47  86 NW7       30.07R
POPLAR BLUFF   CLEAR     55  49  80 N7        30.03R
WEST PLAINS    CLOUDY    51  46  83 N6        30.06F

$$


USA.gov is the U.S. government's official web portal to all federal, state and local government web resources and services.